Starlink 31364

operational
NORAD ID: 59463 Int'l Des: 2024-068 Owner: SPXS Country: US Constellation: starlink
LEOCIRCULAR

About Starlink 31364

Description loading...

Live Position

Loading 3D Globe...

Upcoming Passes

Altitude History

Altitude vs Time

uPlot chart will show altitude changes over time

Two-Line Element Set

1 59463U 24068J 25303.69319957 -.00004121 00000-0 -14038-3 0 9998
2 59463 43.0082 45.0169 0001109 292.0971 67.9763 15.27567085 88686
Epoch: Oct 30, 2025 • Age: 21 hours

Current Status

Altitude 487.9 km
Velocity 7.62 km/s
Sub-Earth Point -21.23°S, 5.07°W
Launch Date Apr 10, 2024
Age 1.5 years
Type internet

Technical Details

Classification Payload
Mass 730.00 kg
Dry Mass 700.00 kg
Total Mass 730.00 kg
Length 0.30 m
Diameter 4.10 m
Span 29.00 m
Shape Box + pan
Manufacturer SPXS
Bus Type Starlink V2M
Phase Status In Orbit
Owner/State SPXS/US

Large Constellations

Loading constellations...